Weather History for Knoxville, TN

Change the Weather History Date:

Thursday, July 25, 2013

  Actual Average Record
Temperature  
Mean Temperature 76 °F 78 °F  
Max Temperature 85 °F 88 °F 101 °F (1934)
Min Temperature 66 °F 69 °F 54 °F (1876)
Degree Days  
Heating Degree Days 0 0  
Month to date heating degree days 0 0  
Since 1 June heating degree days 0 4  
Since 1 July heating degree days 0 0  
Cooling Degree Days 11 14  
Month to date cooling degree days 303 340  
Year to date cooling degree days 779 807  
Since 1 June cooling degree days 623 645  
Growing Degree Days 25 (Base 50)    
Moisture  
Dew Point 63 °F    
Average Humidity 68    
Maximum Humidity 93    
Minimum Humidity 43    
Precipitation  
Precipitation 0.00 in 0.16 in 4.33 in (1962)
Month to date precipitation 6.69 4.20  
Year to date precipitation 47.49 29.45  
Snow  
Snow 0.00 in 0.00 in - ()
Month to date snowfall 0.0 0.0  
Since 1 June snowfall 0.0 0.0  
Since 1 July snowfall 0.0 0.0  
Snow Depth 0.00 in    
Sea Level Pressure  
Sea Level Pressure 29.95 in    
Wind  
Wind Speed 5 mph (North)    
Max Wind Speed 13 mph    
Max Gust Speed 22 mph    
Visibility 10 miles    
Events      
T = Trace of Precipitation, MM = Missing Value Source: NWS Daily Summary

Daily Weather History Graph

Daily Weather History Graph

Search for Another Location

Airport:

Trip Planner

Search our weather history database for the weather conditions in past years. The results will help you decide how hot, cold, wet, or windy it might be!

Date:

Astronomy

Jul. 25, 2013 Rise Set
Actual Time 6:38 AM EDT 8:46 PM EDT
Civil Twilight 6:09 AM EDT 9:14 PM EDT
Nautical Twilight 5:34 AM EDT 9:49 PM EDT
Astronomical Twilight 4:56 AM EDT 10:27 PM EDT
Moon 10:36 PM EDT (7/25) 9:58 AM EDT (7/25)
Length of Visible Light 15h 04m
Length of Day
14h 07m
Waning Gibbous, 88% of the Moon is Illuminated
Jul 25
Waning Gibbous
Jul 29
Last Quarter
Aug 6
New
Aug 14
First Quarter
Aug 20
Full

Hourly Weather History & Observations

Time (EDT) Temp. Heat Index Dew Point Humidity Pressure Visibility Wind Dir Wind Speed Gust Speed Precip Events Conditions
12:53 AM 71.1 °F - 64.9 °F 81% 29.89 in 10.0 mi NNE 3.5 mph - N/A   Mostly Cloudy
1:53 AM 71.1 °F - 66.0 °F 84% 29.89 in 10.0 mi Calm Calm - N/A   Overcast
2:53 AM 69.1 °F - 66.0 °F 90% 29.88 in 10.0 mi North 3.5 mph - N/A   Scattered Clouds
3:53 AM 68.0 °F - 64.9 °F 90% 29.88 in 10.0 mi Calm Calm - N/A   Scattered Clouds
4:53 AM 66.9 °F - 64.0 °F 90% 29.88 in 10.0 mi North 3.5 mph - N/A   Scattered Clouds
5:16 AM 66.2 °F - 64.4 °F 94% 29.92 in 10.0 mi North 6.9 mph - N/A   Mostly Cloudy
5:50 AM 66.2 °F - 64.4 °F 94% 29.92 in 10.0 mi NNE 5.8 mph - N/A   Mostly Cloudy
5:53 AM 66.9 °F - 64.0 °F 90% 29.89 in 10.0 mi NNE 4.6 mph - N/A   Mostly Cloudy
6:53 AM 66.0 °F - 64.0 °F 93% 29.92 in 9.0 mi Calm Calm - N/A   Scattered Clouds
7:53 AM 68.0 °F - 64.9 °F 90% 29.94 in 8.0 mi NE 4.6 mph - N/A   Scattered Clouds
8:53 AM 71.1 °F - 64.9 °F 81% 29.95 in 10.0 mi NNE 8.1 mph - N/A   Partly Cloudy
9:53 AM 73.9 °F - 66.0 °F 76% 29.94 in 10.0 mi NNE 6.9 mph - N/A   Partly Cloudy
10:53 AM 77.0 °F - 66.0 °F 69% 29.94 in 10.0 mi NE 8.1 mph - N/A   Scattered Clouds
11:53 AM 80.1 °F 82.3 °F 66.9 °F 64% 29.95 in 10.0 mi Variable 6.9 mph - N/A   Scattered Clouds
12:53 PM 82.0 °F 83.8 °F 64.9 °F 56% 29.96 in 10.0 mi North 8.1 mph - N/A   Scattered Clouds
1:53 PM 82.9 °F 83.7 °F 62.1 °F 49% 29.95 in 10.0 mi Variable 4.6 mph - N/A   Partly Cloudy
2:53 PM 84.0 °F 84.4 °F 61.0 °F 46% 29.95 in 10.0 mi NNE 6.9 mph - N/A   Partly Cloudy
3:53 PM 84.0 °F 84.5 °F 62.1 °F 47% 29.96 in 10.0 mi North 8.1 mph - N/A   Scattered Clouds
4:53 PM 84.9 °F 85.0 °F 61.0 °F 44% 29.96 in 10.0 mi NNW 8.1 mph - N/A   Partly Cloudy
5:53 PM 84.0 °F 83.8 °F 59.0 °F 43% 29.96 in 10.0 mi NNW 5.8 mph - N/A   Partly Cloudy
6:53 PM 82.0 °F 83.0 °F 62.1 °F 51% 29.97 in 10.0 mi North 10.4 mph - N/A   Partly Cloudy
7:53 PM 79.0 °F - 61.0 °F 54% 29.99 in 10.0 mi North 9.2 mph - N/A   Scattered Clouds
8:53 PM 75.9 °F - 61.0 °F 60% 30.00 in 10.0 mi North 6.9 mph - N/A   Scattered Clouds
9:53 PM 73.9 °F - 60.1 °F 62% 30.01 in 10.0 mi North 5.8 mph - N/A   Partly Cloudy
10:53 PM 72.0 °F - 61.0 °F 68% 30.03 in 10.0 mi Calm Calm - N/A   Clear
11:53 PM 70.0 °F - 61.0 °F 73% 30.03 in 10.0 mi Calm Calm - N/A   Scattered Clouds